Regional Weather Roundup
Issued by NWS Wakefield, VA

Current Version | Previous Version | Text Only | Print | Product List | Glossary On
Versions: 1 2 3 4 5 6 7 8 9 10 11 12 13 14 15 16 17 18 19 20 21 22 23 24 25 26 27 28 29 30 31 32 33 34 35 36 37 38 39 40 41 42 43 44 45 46 47 48 49 50
000
ASUS41 KAKQ 011510
RWRAKQ

REGIONAL WEATHER ROUNDUP
NATIONAL WEATHER SERVICE WAKEFIELD VA
1000 AM EST SUN FEB 01 2015

Note: "fair" indicates few or no clouds below 12,000 feet with no
significant weather and/or obstructions to visibility. * = Denotes
station may not report precipitation (e.g., rain,snow,etc.),
thunder or fog.

VAZ042-051-052>054-056-011600-
NORTHERN VIRGINIA

CITY           SKY/WX    TMP DP  RH WIND       PRES   REMARKS
WASH NATIONAL  CLOUDY    35  20  54 S6        30.28F
DULLES         CLOUDY    33  13  43 S7        30.26F
FORT BELVOIR   CLOUDY    33  17  52 VRB1      30.28F
QUANTICO       CLOUDY    32  17  54 S3        30.30F
FREDERICKSBRG* CLOUDY    35  16  45 CALM      30.27F
STAFFORD*      CLOUDY    33  12  41 CALM      30.31F
WARRENTON      CLOUDY    34  22  61 SW3       30.26S
CULPEPER*      CLOUDY    34  16  47 SW3       30.27S
MANASSAS*      CLOUDY    30  21  69 CALM      30.27F
LEESBURG*      CLOUDY    34  25  69 CALM      30.26S
WINCHESTER     CLOUDY    34  14  44 CALM      30.21S
FRONT ROYAL*   CLOUDY    32  19  59 CALM      30.21S
LURAY*         CLOUDY    32  23  69 CALM      30.21S
$$

VAZ048-049-060>072-079>083-011600-
CENTRAL AND SOUTH CENTRAL VIRGINIA

CITY           SKY/WX    TMP DP  RH WIND       PRES   REMARKS
RICHMOND       CLOUDY    36  22  56 SE6       30.28R
CHESTERFIELD*  FAIR      34  12  40 CALM      30.29F
PETERSBURG*    CLOUDY    37  18  47 E3        30.29F
HANOVER        CLOUDY    34  19  54 SE6       30.30R
TAPPAHANNOCK*  CLOUDY    38  11  33 SE5       30.28F
QUINTON*       FAIR      35  19  50 SE6       30.29R
CHARLOTTSVILLE CLOUDY    33  11  39 SW5       30.27R
GORDONSVILLE*  CLOUDY    32  16  50 SW7       30.27R
ORANGE*        CLOUDY    34  19  55 S3        30.29R
LOUISA*        CLOUDY    36  21  55 S6        30.26S
BUMPASS*       CLOUDY    33  20  58 CALM      30.27S
FARMVILLE*     CLOUDY    43  17  34 CALM      30.27R
CREWE*         PTSUNNY   40  13  33 S3        30.27R
FORT PICKETT*  PTSUNNY   39  10  30 S6        30.28R
CHASE CITY*    PTSUNNY   45  21  39 SE3       30.27S
CLARKSVILLE*   CLOUDY    43  23  45 SW3       30.26S
SOUTH HILL*    PTSUNNY   38  21  50 SW3       30.34R
LAWRENCEVILLE* CLOUDY    38  15  37 CALM      30.28S
EMPORIA*       CLOUDY    36  19  51 NE3       30.31R
$$

VAZ088>098-011600-
SOUTHEAST VIRGINIA

CITY           SKY/WX    TMP DP  RH WIND       PRES   REMARKS
NORFOLK        PTSUNNY   41  25  53 E10       30.29F
VIRGINIA BEACH PTSUNNY   42  27  55 E12       30.30S
NORFOLK NAVAL  PTSUNNY   45  26  47 SE10      30.31S
WEST POINT*    PTSUNNY   42  11  28 SE8       30.31S
SALUDA*        FAIR      38  21  50 S7        30.29F
NEWPORT NEWS   MOSUNNY   42  24  49 SE9       30.31R
LANGLEY AFB    MOSUNNY   40  24  53 SE9       30.30R
FORT EUSTIS    MOSUNNY   40  26  59 SE7       30.28S
WILLIAMSBURG*    N/A     43  28  56 S9        30.31R
HR EXEC AP*    FAIR      36  25  64 E5        30.32F
FRANKLIN*      PTSUNNY   36  18  48 E5        30.30F
WAKEFIELD      MOSUNNY   38  21  50 E6        30.29S
$$

VAZ020-022-025-037-045-011600-
WEST CENTRAL AND SOUTHWEST VIRGINIA

CITY           SKY/WX    TMP DP  RH WIND       PRES   REMARKS
STAUNTON*      CLOUDY    38  16  40 S7        30.23R
WAYNESBORO*    CLOUDY    38   9  30 CALM      30.20R
HOT SPRINGS VA CLOUDY    36  25  66 SW10      30.11S
LYNCHBURG      CLOUDY    39  16  39 S5        30.25F
DANVILLE       CLOUDY    40  20  44 CALM      30.23F
SOUTH BOSTON*  PTSUNNY   41  19  39 CALM      30.26S
MARTINSVILLE   CLOUDY    38  19  46 SW3       30.25R
ROANOKE        CLOUDY    38  18  44 E9        30.21F
BLACKSBURG     CLOUDY    36  13  40 E6        30.17F
DUBLIN*        CLOUDY    36  19  50 CALM      30.17R
MARION*        CLOUDY    37  10  32 NE8       30.14F
HILLSVILLE*    CLOUDY    39  10  30 SE5       30.14R
RICHLANDS*     CLOUDY    43  21  41 SE3       30.07F
WISE*          CLOUDY    43   7  22 S6        30.07F
ABINGDON*      CLOUDY    44  12  27 E7        30.10S
$$

MDZ021>025-VAZ099-100-011600-
SOUTHERN MARYLAND AND THE DELMARVA PENINSULA

CITY           SKY/WX    TMP DP  RH WIND       PRES   REMARKS
PATUXENT RIVER PTSUNNY   38  21  50 SE7       30.28F
BAY BRIDGE APT   N/A     32  18  55 CALM      30.29F
LEONARDTOWN    PTSUNNY   36  19  51 S6        30.29F
DOVER          MOSUNNY   33  17  50 SW5       30.28S
GEORGETOWN     PTSUNNY   32  17  54 SW6       30.29F
EASTON         PTSUNNY   28  21  74 CALM      30.31F
CAMBRIDGE      MOSUNNY   37  23  56 SE7       30.27F
SALISBURY      CLOUDY    35  16  45 S3        30.30S
OCEAN CITY     CLOUDY    33  16  49 SW5       30.31S
WALLOPS ISLAND MOSUNNY   37  17  44 S7        30.31F
ACCOMACK*      MOSUNNY   37  19  48 SE7       30.30S
$$

NCZ012>017-030>032-011600-
NORTH CENTRAL AND EASTERN NORTH CAROLINA

CITY           SKY/WX    TMP DP  RH WIND       PRES   REMARKS
ROANOKE RAPIDS FAIR      37  27  65 SW5       30.30R
RALEIGH        CLOUDY    42  20  41 CALM      30.27F
ELIZABETH CITY CLOUDY    36  23  59 CALM      30.32S
AHOSKIE*       PTSUNNY   37  25  63 CALM      30.30S
EDENTON*       CLOUDY    40  24  51 CALM      30.31S
CURRITUCK*     CLOUDY    37  18  46 CALM      30.32S
KILL DEVIL HLS CLOUDY    40  27  59 NW6       30.30S
MANTEO         CLOUDY    41  25  52 W7        30.32S
CAPE HATTERAS  CLOUDY    45  31  58 VRB5      30.33R
TARBORO*       FAIR      46  22  37 W8        30.31S
GOLDSBORO      PTSUNNY   47  29  47 W6        30.30R
WASHINGTON     CLOUDY    42  25  51 SW3       30.32R
GREENVILLE     MOSUNNY   45  25  45 CALM      30.31S
NEW BERN       PTSUNNY   49  26  41 SW6       30.33F
WILMINGTON     PTSUNNY   49  35  58 S6        30.32F
$$

VAZ048-011600-
ELSEWHERE

CITY           SKY/WX    TMP DP  RH WIND       PRES   REMARKS
HARRISBURG PA  CLOUDY    28  18  66 CALM      30.24S
BALTIMORE      CLOUDY    33  15  47 SW3       30.26F
ANNAPOLIS      PTSUNNY   35  12  38 SW6       30.28F
ANDREWS AFB    CLOUDY    33  16  49 SW6       30.26F
PHILADELPHIA   CLOUDY    32  16  51 SW8       30.28R
HENDERSON NC   CLOUDY    44  18  36 CALM      30.26F
GREENSBORO     CLOUDY    42  21  43 SW6       30.22S
ROCKY MOUNT    MOSUNNY   44  24  45 SW5       30.30R
$$

VAZ100-011600-
MARINE

STATION/POSITION TIME  TEMP    WIND        PRES    WAVE   SWELL
                       AIR SEA DIR/SP/G            HT/PER HT/PER
                 (UTC) (F)     (DEG/KT/KT) (MB)    (FT/S) (FT/S)
BRANDYWINE LGT   1500   30 35  240/  9/ 10 1025.6S
CAPE MAY NJ      1500   31 33              1025.2F
LEWES DE         1500   31 35  220/  5/  6 1025.4S
15NM E FENWICK I 1500   35 39              1025.6S   2/12
OCEAN-CITY-INLET 1500   33 37  240/  5/  6 1025.7F
WACHAPREAGUE VA  1500   38 33  120/  5/  8 1026.1S
THOMAS POINT MD  1500   31 35  260/  2/  3 1026.6F
GOOSES REEF MD   1500   33     VRB  6/  8  1024.5F
COVE POINT MD    1500   33     190/ 11/ 13 1025.4S
SOLOMONS ISLAND  1500      36                N/A
BISHOPS HEAD MD  1500   33 31  160/ 11/ 13 1024.9F
PINEY POINT MD   1500          170/  5/  6   N/A
POTOMAC MD       1500   35     170/ 10/ 12 1024.8R
CAMBRIDGE MD     1500   34 33   CALM  /  2 1025.2F
LEWISETTA VA     1500   36 34  180/  5/  6 1025.3F
RAPPAHANNOCK LGT 1500          110/  9/ 10 1026.4S
STINGRAY PT      1500   36     140/ 10/ 12 1026.3S
YORK RVR RNG VA  1500   37     120/ 11/ 12 1025.1F
YORKTOWN VA      1500   38 38  110/ 10/ 12 1025.7R
JAMESTOWN VA     1500   36     130/  8/ 12   N/A
DOMINION TERM VA 1500   39     110/  8/ 11 1026.1R
KIPTOPEKE VA     1500      41  120/  9/ 13   N/A
CHES BAY BRIDGE  1500   39 39   80/ 11/ 13 1025.6S
CAPE HENRY VA    1500   39      90/ 12/ 13 1024.8R
CHESAPEAKE LGHT  1400   39      70/ 15/ 16 1026.7S
WILLOUBY STN VA  1500   38     110/ 12/ 13 1026.3R
S CRANEY ISL VA  1500          120/  8/ 10 1026.0R
CAPE HENRY BUOY  1500      42                N/A     2/ 7
1ST LANDING BUOY 1500   39     100/ 12/ 14 1025.7R
CAPE CHARLES BUO 1500      40                N/A     2/ 3   2/12
OFFSHORE WE BUOY 1400      43                N/A     3/ 7   2/ 7
64NM E OF VA BCH 1500   43 48   40/  8/ 10 1025.8S   3/ 6   3/ 6
DUCK PIER NC     1500   37 40  300/  3/  4 1025.7F
44100 DUCK FRF   1500      43                N/A     3/ 7
44056 DUCK FRF   1500      40                N/A     2/ 7
OREGON INLET NC  1500   39 36  240/  4/  5 1026.5F
HATTERAS NC      1500   45 45  260/  9/ 12 1027.1S



USA.gov is the U.S. government's official web portal to all federal, state and local government web resources and services.